EW7966 Weather Reports


time (UTC)temp
F
wind
direction
speed
knots
gust
knots
rain 1hr
in
rain 24hr
in
rain mn
in
humidity
%
barometer
mb
20260905025006 74 167 10.4 14.8 0.00 0.00 0.00 41 1018.3
20260905024506 74 136 3.5 12.2 0.00 0.00 0.00 39 1018.4
20260905024504 74 136 2.6 12.2 0.00 0.00 0.00 39 1000.9
20260905024006 75 155 7.8 13.9 0.00 0.00 0.00 37 1018.4
20260905023505 75 148 7.0 9.6 0.00 0.00 0.00 38 1018.2
20260905023006 75 148 7.0 12.2 0.00 0.00 0.00 38 1018.2
20260905023004 75 148 6.1 12.2 0.00 0.00 0.00 38 1000.7
20260905022506 76 151 6.1 14.8 0.00 0.00 0.00 37 1018.2
20260905021506 74 157 5.2 8.7 0.00 0.00 0.00 39 1018.4
20260905021504 74 157 5.2 8.7 0.00 0.00 0.00 39 1000.8
20260905021006 73 177 2.6 5.2 0.00 0.00 0.00 38 1018.2
20260905020505 73 28 0.0 0.9 0.00 0.00 0.00 40 1018.1
20260905020010 73 28 0.0 0.9 0.00 0.00 0.00 45 1000.5
20260905020006 73 28 0.0 0.9 0.00 0.00 0.00 45 1018.0
20260905015505 74 28 0.0 2.6 0.00 0.00 0.00 44 1017.9
20260905015007 75 28 0.9 2.6 0.00 0.00 0.00 39 1017.8
20260905014505 75 28 1.7 3.5 0.00 0.00 0.00 39 1017.8
20260905013959 76 28 1.7 3.5 0.00 0.00 0.00 36 1017.8
20260905013007 76 163 3.5 6.1 0.00 0.00 0.00 34 1017.6
20260905013004 76 163 2.6 6.1 0.00 0.00 0.00 34 1000.1
20260905012506 76 150 3.5 7.0 0.00 0.00 0.00 34 1017.4
20260905012008 76 136 4.3 7.0 0.00 0.00 0.00 35 1017.2
20260905011511 75 133 4.3 7.0 0.00 0.00 0.00 35 999.6
20260905011007 76 130 5.2 7.0 0.00 0.00 0.00 35 1017.2
20260905010505 76 131 3.5 7.8 0.00 0.00 0.00 36 1017.2
20260905010008 76 139 5.2 9.6 0.00 0.00 0.00 35 1017.0
20260905010004 76 139 5.2 9.6 0.00 0.00 0.00 35 999.6
20260905005505 77 126 6.1 10.4 0.00 0.00 0.00 34 1017.0
20260905005008 78 124 7.8 11.3 0.00 0.00 0.00 32 1016.9
20260905004503 78 133 6.1 11.3 0.00 0.00 0.00 32 999.4
20260905004006 78 116 7.0 10.4 0.00 0.00 0.00 32 1016.9
20260905003506 79 125 6.1 10.4 0.00 0.00 0.00 31 1016.9
20260905003006 79 126 6.1 10.4 0.00 0.00 0.00 31 1017.0
20260905002004 80 101 7.0 11.3 0.00 0.00 0.00 30 1016.8
20260905001506 81 124 8.7 13.0 0.00 0.00 0.00 29 1016.8
20260905001504 81 124 7.8 13.0 0.00 0.00 0.00 29 999.4
20260905001007 81 98 8.7 16.5 0.00 0.00 0.00 29 1016.8
20260905000008 83 112 11.3 17.4 0.00 0.00 0.00 27 1016.7
20260905000005 83 112 10.4 17.4 0.00 0.00 0.00 27 999.2
20260904235005 84 91 9.6 12.2 0.00 0.00 0.00 27 1016.6
20260904234511 84 136 7.0 14.8 0.00 0.00 0.00 27 999.2
20260904234506 84 136 7.8 14.8 0.00 0.00 0.00 27 1016.7
20260904234006 84 98 11.3 14.8 0.00 0.00 0.00 26 1016.7
20260904233008 82 134 10.4 15.6 0.00 0.00 0.00 27 1016.7
20260904233004 82 134 10.4 15.6 0.00 0.00 0.00 27 999.3
20260904232006 83 132 10.4 14.8 0.00 0.00 0.00 26 1016.7
20260904231505 85 136 10.4 14.8 0.00 0.00 0.00 24 1016.5
20260904231503 85 136 9.6 14.8 0.00 0.00 0.00 24 999.1
20260904231006 85 138 8.7 12.2 0.00 0.00 0.00 25 1016.5
20260904230459 85 128 7.8 13.9 0.00 0.00 0.00 25 1016.6
20260904230107 85 119 8.7 13.9 0.00 0.00 0.00 25 999.1
20260904230000 85 112 9.6 13.9 0.00 0.00 0.00 24 1016.6
20260904225505 85 117 9.6 13.9 0.00 0.00 0.00 24 1016.5
20260904224506 86 112 8.7 13.9 0.00 0.00 0.00 25 1016.6
20260904224006 86 192 6.1 13.0 0.00 0.00 0.00 24 1016.6
20260904223507 86 117 7.8 14.8 0.00 0.00 0.00 25 1016.6
20260904223007 86 121 10.4 14.8 0.00 0.00 0.00 25 1016.5
20260904223004 86 121 9.6 14.8 0.00 0.00 0.00 25 999.1
20260904222506 86 95 10.4 14.8 0.00 0.00 0.00 26 1016.5
20260904222006 85 111 8.7 16.5 0.00 0.00 0.00 24 1016.7
20260904221506 85 111 11.3 16.5 0.00 0.00 0.00 25 1016.8
20260904221006 85 91 9.6 13.9 0.00 0.00 0.00 24 1016.7
20260904220505 85 123 11.3 13.9 0.00 0.00 0.00 24 1016.7
20260904220009 85 83 9.6 13.9 0.00 0.00 0.00 25 1016.7
20260904220004 85 83 8.7 13.9 0.00 0.00 0.00 25 999.3
20260904215506 85 128 8.7 13.9 0.00 0.00 0.00 25 1016.9
20260904215006 86 118 7.8 13.0 0.00 0.00 0.00 24 1016.9
20260904214506 86 150 7.0 14.8 0.00 0.00 0.00 24 1016.9
20260904214000 86 151 8.7 14.8 0.00 0.00 0.00 26 1017.0
20260904213506 85 144 6.1 12.2 0.00 0.00 0.00 26 1016.9
20260904213006 85 106 6.1 11.3 0.00 0.00 0.00 25 1017.0
20260904213004 85 106 6.1 11.3 0.00 0.00 0.00 25 999.7
20260904212506 85 165 7.8 11.3 0.00 0.00 0.00 24 1017.0
20260904211506 86 128 7.0 10.4 0.00 0.00 0.00 24 1017.1
20260904211503 86 128 6.1 10.4 0.00 0.00 0.00 24 999.8
20260904211007 85 132 4.3 9.6 0.00 0.00 0.00 25 1017.2
20260904210007 85 130 7.0 11.3 0.00 0.00 0.00 23 1017.3
20260904210004 85 130 6.1 11.3 0.00 0.00 0.00 23 999.9
20260904205506 86 80 7.8 13.0 0.00 0.00 0.00 23 1017.3
20260904204503 86 116 9.6 13.0 0.00 0.00 0.00 22 1000.1
20260904203505 85 109 5.2 13.9 0.00 0.00 0.00 23 1017.6
20260904203009 85 119 10.4 15.6 0.00 0.00 0.00 22 1000.3
20260904203006 85 130 10.4 15.6 0.00 0.00 0.00 22 1017.6
20260904202506 85 159 11.3 15.6 0.00 0.00 0.00 23 1017.5
20260904201507 84 146 8.7 11.3 0.00 0.00 0.00 25 1017.6
20260904201504 84 146 8.7 11.3 0.00 0.00 0.00 25 1000.3
20260904201006 85 102 4.3 9.6 0.00 0.00 0.00 23 1017.7
20260904200008 85 166 4.3 7.8 0.00 0.00 0.00 22 1017.8
20260904200006 85 166 3.5 7.8 0.00 0.00 0.00 22 1000.5
20260904195006 84 5 2.6 6.1 0.00 0.00 0.00 23 1017.9
20260904194505 84 237 3.5 7.0 0.00 0.00 0.00 23 1017.9
20260904194503 84 237 3.5 7.0 0.00 0.00 0.00 23 1000.6
20260904194006 84 283 3.5 9.6 0.00 0.00 0.00 24 1017.9
20260904193506 85 186 5.2 12.2 0.00 0.00 0.00 22 1018.0
20260904193008 86 284 7.0 12.2 0.00 0.00 0.00 22 1000.6
20260904193006 86 284 7.0 12.2 0.00 0.00 0.00 22 1017.9
20260904192506 86 213 4.3 9.6 0.00 0.00 0.00 22 1018.0
20260904192011 85 245 3.5 8.7 0.00 0.00 0.00 23 1018.0
20260904191505 84 236 3.5 7.0 0.00 0.00 0.00 24 1018.0
20260904190010 84 150 5.2 15.6 0.00 0.00 0.00 23 1001.1
20260904190007 84 150 5.2 15.6 0.00 0.00 0.00 23 1018.3
20260904185506 84 190 2.6 10.4 0.00 0.00 0.00 24 1018.4
20260904185006 84 276 4.3 8.7 0.00 0.00 0.00 23 1018.4
20260904184505 83 281 2.6 10.4 0.00 0.00 0.00 25 1018.4
20260904184503 83 281 2.6 10.4 0.00 0.00 0.00 25 1001.2
20260904184006 83 156 7.0 10.4 0.00 0.00 0.00 23 1018.4
20260904183506 83 194 6.1 9.6 0.00 0.00 0.00 23 1018.4
20260904183004 83 255 4.3 8.7 0.00 0.00 0.00 23 1001.3
20260904182006 83 190 5.2 11.3 0.00 0.00 0.00 22 1018.6
20260904181505 83 257 4.3 9.6 0.00 0.00 0.00 22 1018.7
20260904181503 83 257 3.5 9.6 0.00 0.00 0.00 22 1001.6
20260904181007 83 238 3.5 14.8 0.00 0.00 0.00 23 1018.8
20260904180006 82 245 2.6 11.3 0.00 0.00 0.00 24 1001.8
20260904175505 82 216 5.2 13.9 0.00 0.00 0.00 23 1018.9
20260904175007 83 264 5.2 13.9 0.00 0.00 0.00 23 1018.9
20260904174506 82 261 3.5 7.8 0.00 0.00 0.00 23 1019.0
20260904174504 82 261 3.5 7.8 0.00 0.00 0.00 23 1002.0
20260904173506 82 244 4.3 8.7 0.00 0.00 0.00 23 1019.0
20260904173003 81 292 1.7 9.6 0.00 0.00 0.00 22 1002.1
20260904172505 81 255 4.3 11.3 0.00 0.00 0.00 22 1019.0
20260904171505 81 302 3.5 8.7 0.00 0.00 0.00 23 1019.0
20260904171503 81 302 3.5 8.7 0.00 0.00 0.00 23 1002.1
20260904171007 81 241 3.5 11.3 0.00 0.00 0.00 25 1019.0
20260904170505 81 202 3.5 11.3 0.00 0.00 0.00 23 1019.0
20260904170007 81 281 5.2 7.0 0.00 0.00 0.00 24 1019.0
20260904170004 81 281 4.3 7.0 0.00 0.00 0.00 24 1002.2
20260904165505 81 306 2.6 7.0 0.00 0.00 0.00 24 1018.9
20260904164506 80 246 4.3 12.2 0.00 0.00 0.00 25 1019.0
20260904164006 81 244 5.2 12.2 0.00 0.00 0.00 25 1019.0
20260904163504 80 223 3.5 6.1 0.00 0.00 0.00 24 1019.0
20260904163007 80 296 3.5 9.6 0.00 0.00 0.00 24 1019.0
20260904163003 80 296 2.6 9.6 0.00 0.00 0.00 24 1002.2
20260904162511 80 223 5.2 10.4 0.00 0.00 0.00 24 1018.9
20260904161504 80 248 2.6 9.6 0.00 0.00 0.00 24 1002.0
20260904161006 79 251 5.2 9.6 0.00 0.00 0.00 24 1018.8
20260904160505 79 277 3.5 7.8 0.00 0.00 0.00 24 1018.8
20260904160007 79 240 1.7 7.8 0.00 0.00 0.00 24 1002.0
20260904155506 79 249 2.6 7.8 0.00 0.00 0.00 25 1018.8
20260904155006 78 306 2.6 7.0 0.00 0.00 0.00 25 1018.8
20260904154505 78 224 2.6 7.8 0.00 0.00 0.00 24 1018.8
20260904154503 78 224 2.6 7.8 0.00 0.00 0.00 24 1002.0
20260904154006 78 298 2.6 7.8 0.00 0.00 0.00 25 1018.8
20260904153506 77 261 2.6 7.8 0.00 0.00 0.00 25 1018.8
20260904153007 77 269 1.7 7.8 0.00 0.00 0.00 26 1018.9
20260904153004 77 269 1.7 7.8 0.00 0.00 0.00 26 1002.1
20260904152007 76 278 0.9 6.1 0.00 0.00 0.00 31 1018.9
20260904151507 74 255 2.6 6.1 0.00 0.00 0.00 30 1018.9
20260904151503 74 255 1.7 6.1 0.00 0.00 0.00 30 1002.1
20260904151006 73 234 2.6 4.3 0.00 0.00 0.00 31 1018.9
20260904150506 72 244 1.7 4.3 0.00 0.00 0.00 33 1018.8
20260904150011 72 254 1.7 7.0 0.00 0.00 0.00 32 1002.0
20260904150006 72 254 1.7 7.0 0.00 0.00 0.00 32 1018.8
20260904145507 72 271 3.5 7.0 0.00 0.00 0.00 31 1018.9
20260904145006 72 244 2.6 5.2 0.00 0.00 0.00 32 1019.0
20260904144506 71 246 1.7 5.2 0.00 0.00 0.00 33 1018.8
20260904144504 71 246 1.7 5.2 0.00 0.00 0.00 33 1002.1
20260904144006 71 213 1.7 4.3 0.00 0.00 0.00 33 1018.9
20260904143505 70 236 2.6 4.3 0.00 0.00 0.00 33 1018.8
20260904143006 70 261 2.6 3.5 0.00 0.00 0.00 34 1018.8
20260904143004 70 261 1.7 3.5 0.00 0.00 0.00 34 1002.1
20260904142505 70 55 1.7 2.6 0.00 0.00 0.00 33 1018.9
20260904142007 70 55 1.7 2.6 0.00 0.00 0.00 33 1018.9
20260904141505 70 205 0.0 0.9 0.00 0.00 0.00 34 1018.8
20260904140506 67 163 0.9 1.7 0.00 0.00 0.00 36 1018.6
20260904140008 67 163 0.0 1.7 0.00 0.00 0.00 37 1018.5
20260904140005 67 163 0.0 1.7 0.00 0.00 0.00 37 1001.8
20260904135505 66 163 0.9 1.7 0.00 0.00 0.00 38 1018.5
20260904135007 64 163 0.0 2.6 0.00 0.00 0.00 42 1018.5
20260904134507 63 163 0.0 2.6 0.00 0.00 0.00 43 1018.4
20260904134505 63 163 0.0 2.6 0.00 0.00 0.00 43 1001.7
20260904133504 63 163 1.7 2.6 0.00 0.00 0.00 44 1018.2
20260904133008 62 163 1.7 4.3 0.00 0.00 0.00 42 1018.2
20260904133006 62 163 0.9 4.3 0.00 0.00 0.00 42 1001.5
20260904132505 62 163 3.5 4.3 0.00 0.00 0.00 42 1018.0
20260904132007 61 225 1.7 2.6 0.00 0.00 0.00 41 1018.0
20260904131506 60 225 0.9 2.6 0.00 0.00 0.00 42 1017.9
20260904131503 60 225 0.0 2.6 0.00 0.00 0.00 42 1001.2
20260904131006 59 225 1.7 2.6 0.00 0.00 0.00 42 1017.8
20260904130004 57 105 1.7 2.6 0.00 0.00 0.00 45 1001.1
20260904125506 57 105 0.0 3.5 0.00 0.00 0.00 45 1017.7
20260904124504 58 105 1.7 3.5 0.00 0.00 0.00 44 1000.9
20260904124006 58 159 1.7 4.3 0.00 0.00 0.00 43 1017.4
20260904123505 59 159 2.6 4.3 0.00 0.00 0.00 42 1017.4
20260904123006 60 262 0.9 2.6 0.00 0.00 0.00 42 1017.3
20260904123004 60 262 0.9 2.6 0.00 0.00 0.00 42 1000.6
20260904122507 60 262 1.7 2.6 0.00 0.00 0.00 41 1017.2
20260904122007 60 262 0.9 3.5 0.00 0.00 0.00 40 1017.0
20260904121505 60 262 1.7 6.1 0.00 0.00 0.00 40 1016.9
20260904121006 60 254 3.5 6.1 0.00 0.00 0.00 41 1016.9
20260904120008 60 259 2.6 5.2 0.00 0.00 0.00 41 1016.8
20260904120005 60 259 2.6 5.2 0.00 0.00 0.00 41 1000.1
20260904114505 59 259 2.6 3.5 0.00 0.00 0.00 43 1016.9
20260904114006 59 236 1.7 5.2 0.00 0.00 0.00 43 1016.8
20260904113004 60 225 3.5 7.0 0.00 0.00 0.00 42 1000.1
20260904112505 60 232 3.5 6.1 0.00 0.00 0.00 42 1016.7
20260904112006 60 232 3.5 6.1 0.00 0.00 0.00 42 1016.7
20260904111505 60 235 2.6 6.1 0.00 0.00 0.00 42 1016.7
20260904111503 60 235 2.6 6.1 0.00 0.00 0.00 42 1000.1
20260904111006 61 232 2.6 5.2 0.00 0.00 0.00 42 1016.7
20260904110505 60 292 1.7 6.1 0.00 0.00 0.00 43 1016.7
20260904110007 59 291 2.6 6.1 0.00 0.00 0.00 43 1016.7
20260904110004 59 291 2.6 6.1 0.00 0.00 0.00 43 1000.1
20260904105506 59 294 1.7 3.5 0.00 0.00 0.00 46 1016.7
20260904104505 59 219 1.7 3.5 0.00 0.00 0.00 45 1016.6
20260904103959 59 219 0.9 2.6 0.00 0.00 0.00 46 1016.4
20260904103506 59 219 0.0 2.6 0.00 0.00 0.00 47 1016.4
20260904103005 59 219 0.0 3.5 0.00 0.00 0.00 48 999.6
20260904102005 59 219 0.9 2.6 0.00 0.00 0.00 49 1016.1
20260904101505 60 219 0.9 2.6 0.00 0.00 0.00 49 1016.0
20260904101503 60 219 0.0 2.6 0.00 0.00 0.00 49 999.3
20260904101006 60 219 0.9 2.6 0.00 0.00 0.00 50 1016.0
20260904100505 60 219 0.9 3.5 0.00 0.00 0.00 50 1015.9
20260904100006 60 219 1.7 3.5 0.00 0.00 0.00 50 1015.8
20260904100004 60 219 1.7 3.5 0.00 0.00 0.00 50 999.2
20260904095504 60 173 0.9 2.6 0.00 0.00 0.00 50 1015.8
20260904095007 61 216 0.9 3.5 0.00 0.00 0.00 51 1015.8
20260904094505 61 226 0.9 3.5 0.00 0.00 0.00 51 1015.8
20260904094006 61 220 1.7 3.5 0.00 0.00 0.00 51 1015.8
20260904093505 61 223 1.7 4.3 0.00 0.00 0.00 53 1015.8
20260904093008 61 226 1.7 5.2 0.00 0.00 0.00 55 1015.7
20260904093004 61 226 1.7 5.2 0.00 0.00 0.00 55 999.0
20260904092505 60 217 0.9 5.2 0.00 0.00 0.00 56 1015.7
20260904092006 60 209 0.9 4.3 0.00 0.00 0.00 57 1015.6
20260904091505 60 206 1.7 2.6 0.00 0.00 0.00 58 1015.6
20260904091006 60 207 1.7 4.3 0.00 0.00 0.00 58 1015.5
20260904090505 60 207 2.6 5.2 0.00 0.00 0.00 58 1015.5
20260904090007 60 216 1.7 5.2 0.00 0.00 0.00 58 1015.4
20260904090005 60 216 1.7 5.2 0.00 0.00 0.00 58 998.7
20260904085007 61 188 0.0 2.6 0.00 0.00 0.00 57 1015.5
20260904084505 61 188 1.7 2.6 0.00 0.00 0.00 56 1015.4
20260904084007 62 188 1.7 3.5 0.00 0.00 0.00 55 1015.5
20260904083505 63 188 0.9 5.2 0.00 0.00 0.00 54 1015.6
20260904083006 63 174 3.5 5.2 0.00 0.00 0.00 54 1015.5
20260904083003 63 174 2.6 5.2 0.00 0.00 0.00 54 998.8
20260904082505 63 175 2.6 5.2 0.00 0.00 0.00 54 1015.5
20260904082006 63 190 2.6 3.5 0.00 0.00 0.00 54 1015.6
20260904081507 63 192 0.9 4.3 0.00 0.00 0.00 53 998.9
20260904080505 63 175 1.7 4.3 0.00 0.00 0.00 52 1015.7
20260904080004 63 161 0.9 5.2 0.00 0.00 0.00 53 999.0
20260904075504 63 163 2.6 5.2 0.00 0.00 0.00 53 1015.7
20260904075006 64 178 1.7 5.2 0.00 0.00 0.00 52 1015.7
20260904074506 64 202 2.6 4.3 0.00 0.00 0.00 51 1015.8
20260904074503 64 202 2.6 4.3 0.00 0.00 0.00 51 999.2
20260904074006 66 204 1.7 5.2 0.00 0.00 0.00 49 1015.9
20260904073505 66 204 2.6 7.8 0.00 0.00 0.00 49 1015.9
20260904073008 67 178 4.3 7.8 0.00 0.00 0.00 48 999.3
20260904072505 68 142 5.2 12.2 0.00 0.00 0.00 46 1016.0
20260904072007 68 178 7.8 14.8 0.00 0.00 0.00 46 1015.9
20260904071507 68 157 9.6 14.8 0.00 0.00 0.00 46 1015.7
20260904071504 68 157 8.7 14.8 0.00 0.00 0.00 46 999.1
20260904071007 68 158 9.6 13.0 0.00 0.00 0.00 46 1015.8
20260904070008 69 163 7.8 13.0 0.00 0.00 0.00 45 1015.8
20260904070005 69 163 7.0 13.0 0.00 0.00 0.00 45 999.2
20260904065507 68 153 7.8 12.2 0.00 0.00 0.00 45 1015.9
20260904065007 68 169 8.7 12.2 0.00 0.00 0.00 45 1015.9
20260904064505 69 158 7.0 12.2 0.00 0.00 0.00 45 1015.9
20260904064502 69 158 7.0 12.2 0.00 0.00 0.00 45 999.4
20260904064006 69 166 7.8 13.9 0.00 0.00 0.00 44 1015.9
20260904063508 69 154 8.7 13.9 0.00 0.00 0.00 44 1015.9
20260904063007 69 159 7.0 12.2 0.00 0.00 0.00 43 1015.9
20260904063004 69 159 7.0 12.2 0.00 0.00 0.00 43 999.4
20260904062505 70 168 7.0 12.2 0.00 0.00 0.00 43 1015.9
20260904062007 70 168 7.8 13.9 0.00 0.00 0.00 42 1015.9
20260904061509 70 150 7.8 13.9 0.00 0.00 0.00 42 999.5
20260904061506 70 150 7.8 13.9 0.00 0.00 0.00 42 1016.0
20260904060007 71 158 9.6 14.8 0.00 0.00 0.00 40 1015.9
20260904060004 71 158 9.6 14.8 0.00 0.00 0.00 40 999.5
20260904055504 71 148 8.7 14.8 0.00 0.00 0.00 40 1016.0
20260904055005 71 164 10.4 14.8 0.00 0.00 0.00 40 1016.0
20260904054506 71 174 9.6 14.8 0.00 0.00 0.00 39 999.6
20260904054504 71 174 9.6 14.8 0.00 0.00 0.00 39 1016.0
20260904054005 71 149 10.4 15.6 0.00 0.00 0.00 39 1016.0
20260904053504 71 151 8.7 14.8 0.00 0.00 0.00 39 1016.0
20260904053005 71 147 9.6 14.8 0.00 0.00 0.00 39 1016.0
20260904053002 71 169 9.6 14.8 0.00 0.00 0.00 39 999.6
20260904052505 71 163 9.6 13.9 0.00 0.00 0.00 38 1016.0
20260904052005 71 141 10.4 16.5 0.00 0.00 0.00 38 1016.0
20260904051504 72 157 10.4 16.5 0.00 0.00 0.00 37 1016.0
20260904051502 72 157 10.4 16.5 0.00 0.00 0.00 37 999.7
20260904051004 72 174 11.3 14.8 0.00 0.00 0.00 37 1016.0
20260904050006 72 174 10.4 15.6 0.00 0.00 0.00 36 1016.0
20260904050003 72 174 10.4 15.6 0.00 0.00 0.00 36 999.8
20260904045004 72 163 11.3 15.6 0.00 0.00 0.00 36 1016.0
20260904044504 72 171 11.3 15.6 0.00 0.00 0.00 36 1016.1
20260904044005 72 175 8.7 14.8 0.00 0.00 0.00 36 1016.1
20260904043504 72 143 10.4 16.5 0.00 0.00 0.00 36 1016.1
20260904043004 72 155 11.3 20.0 0.00 0.00 0.00 36 1016.2
20260904043002 72 155 10.4 20.0 0.00 0.00 0.00 36 1000.0
20260904042006 71 168 10.4 14.8 0.00 0.00 0.00 37 1016.2
20260904041504 71 181 9.6 13.0 0.00 0.00 0.00 38 1016.3
20260904041005 71 164 8.7 13.9 0.00 0.00 0.00 39 1016.4
20260904040008 71 159 6.1 13.0 0.00 0.00 0.00 38 1000.3
20260904035505 71 167 7.8 12.2 0.00 0.00 0.00 38 1016.5
20260904034558 72 158 9.6 16.5 0.00 0.00 0.00 37 1000.4
20260904034500 72 153 10.4 16.5 0.00 0.00 0.00 37 1016.5
20260904034004 72 146 11.3 16.5 0.00 0.00 0.00 37 1016.4
20260904033504 72 152 9.6 17.4 0.00 0.00 0.00 37 1016.3
20260904033002 72 162 9.6 15.6 0.00 0.00 0.00 36 1000.2
20260904032503 73 160 9.6 14.8 0.00 0.00 0.00 35 1016.1
20260904031505 73 148 10.4 15.6 0.00 0.00 0.00 34 1016.0
20260904031503 73 148 10.4 15.6 0.00 0.00 0.00 34 1000.0
20260904031005 73 162 9.6 16.5 0.00 0.00 0.00 33 1015.9
20260904030504 73 169 8.7 16.5 0.00 0.00 0.00 32 1015.9
20260904030006 74 154 9.6 13.9 0.00 0.00 0.00 29 1015.9
20260904030002 74 154 8.7 13.9 0.00 0.00 0.00 29 1000.0